User: anonymous   Login
Location: West Cummington
(42.4920°N, 72.9680°W)
Time: 00:23:09
(UTC-04:00)
Language:

Cosmos 841 Rocket - Orbit

View from above orbital plane
View from above orbital plane
View from above satellite
View from above satellite

Ground track
Ground track

The orbit data is extracted from the following two-line orbital elements,

1 09023U 76069B   15188.50394110  .00000182  00000-0  67058-4 0  9999
2 09023 074.0445 328.2249 0018431 307.7914 052.1571 14.39398242 42561
Epoch (UTC): 07 July 2015 12:05:40
Eccentricity: 0.0018431
inclination: 74.0445°
perigee height: 747 km
apogee height: 773 km
right ascension of ascending node: 328.2249°
argument of perigee: 307.7914°
revolutions per day: 14.39398242
mean anomaly at epoch: 52.1571°
orbit number at epoch: 4256

The dashed part of the orbit path shows where the satellite is in the earth's shadow,  

DLR